Volver al catálogo

USA 407

ActivoMilitarVLEO
NORAD 61028·PAYLOAD·🇺🇸 United States

Lanzado Sep 6, 2024 desde Vandenberg Space Force Base

Loading…

Próximos Pases (próximas 24 horas)

TLE

ObsoletoSource: Mike McCants

Época: Sep 9, 2026, 20:21 UTC

1 61028U 24160H   26252.84793840 0.00000000  00000-0  00000-0 0    03
2 61028  70.0177 159.5787 0004000 347.2658  12.7342 14.96713290    03

Sigue USA 407 en tiempo real con AllMySat

Download on the App Store